Year,Month,Day,Hour,Minute,Value (Times are PST for temperature in C)
2010,07,10,00,00,20.20
2010,07,10,00,01,20.20
2010,07,10,00,02,20.20
2010,07,10,00,03,20.20
2010,07,10,00,04,20.20
2010,07,10,00,05,20.20
2010,07,10,00,06,20.20
2010,07,10,00,07,20.10
2010,07,10,00,08,20.10
2010,07,10,00,09,20.10
2010,07,10,00,10,20.00
2010,07,10,00,11,20.00
2010,07,10,00,12,19.90
2010,07,10,00,13,19.90
2010,07,10,00,14,19.90
2010,07,10,00,15,19.90
2010,07,10,00,16,19.80
2010,07,10,00,17,19.80
2010,07,10,00,18,19.80
2010,07,10,00,19,19.80
2010,07,10,00,20,19.80
2010,07,10,00,21,19.80
2010,07,10,00,22,19.80
2010,07,10,00,23,19.70
2010,07,10,00,24,19.70
2010,07,10,00,25,19.70
2010,07,10,00,26,19.70
2010,07,10,00,27,19.70
2010,07,10,00,28,19.60
2010,07,10,00,29,19.60
2010,07,10,00,30,19.60
2010,07,10,00,31,19.60
2010,07,10,00,32,19.50
2010,07,10,00,33,19.40
2010,07,10,00,34,19.40
2010,07,10,00,35,19.40
2010,07,10,00,36,19.30
2010,07,10,00,37,19.30
2010,07,10,00,38,19.30
2010,07,10,00,39,19.30
2010,07,10,00,40,19.30
2010,07,10,00,41,19.30
2010,07,10,00,42,19.20
2010,07,10,00,43,19.20
2010,07,10,00,44,19.20
2010,07,10,00,45,19.20
2010,07,10,00,46,19.20
2010,07,10,00,47,19.20
2010,07,10,00,48,19.20
2010,07,10,00,49,19.20
2010,07,10,00,50,19.10
2010,07,10,00,51,19.10
2010,07,10,00,52,19.10
2010,07,10,00,53,19.10
2010,07,10,00,54,19.10
2010,07,10,00,55,19.10
2010,07,10,00,56,19.10
2010,07,10,00,57,19.10
2010,07,10,00,58,19.10
2010,07,10,00,59,19.00
2010,07,10,01,00,19.00
2010,07,10,01,01,19.00
2010,07,10,01,02,19.00
2010,07,10,01,03,19.00
2010,07,10,01,04,18.90
2010,07,10,01,05,18.90
2010,07,10,01,06,19.00
2010,07,10,01,07,18.90
2010,07,10,01,08,18.90
2010,07,10,01,09,18.90
2010,07,10,01,10,18.90
2010,07,10,01,11,18.90
2010,07,10,01,12,18.90
2010,07,10,01,13,18.90
2010,07,10,01,14,18.90
2010,07,10,01,15,18.90
2010,07,10,01,16,18.90
2010,07,10,01,17,18.80
2010,07,10,01,18,18.80
2010,07,10,01,19,18.80
2010,07,10,01,20,18.80
2010,07,10,01,21,18.80
2010,07,10,01,22,18.80
2010,07,10,01,23,18.80
2010,07,10,01,24,18.80
2010,07,10,01,25,18.80
2010,07,10,01,26,18.80
2010,07,10,01,27,18.70
2010,07,10,01,28,18.70
2010,07,10,01,29,18.70
2010,07,10,01,30,18.70
2010,07,10,01,31,18.60
2010,07,10,01,32,18.60
2010,07,10,01,33,18.60
2010,07,10,01,34,18.60
2010,07,10,01,35,18.60
2010,07,10,01,36,18.50
2010,07,10,01,37,18.50
2010,07,10,01,38,18.40
2010,07,10,01,39,18.40
2010,07,10,01,40,18.40
2010,07,10,01,41,18.40
2010,07,10,01,42,18.30
2010,07,10,01,43,18.30
2010,07,10,01,44,18.30
2010,07,10,01,45,18.30
2010,07,10,01,46,18.30
2010,07,10,01,47,18.30
2010,07,10,01,48,18.30
2010,07,10,01,49,18.30
2010,07,10,01,50,18.30
2010,07,10,01,51,18.30
2010,07,10,01,52,18.30
2010,07,10,01,53,18.30
2010,07,10,01,54,18.30
2010,07,10,01,55,18.30
2010,07,10,01,56,18.30
2010,07,10,01,57,18.30
2010,07,10,01,58,18.30
2010,07,10,01,59,18.20
2010,07,10,02,00,18.20
2010,07,10,02,01,18.20
2010,07,10,02,02,18.20
2010,07,10,02,03,18.20
2010,07,10,02,04,18.20
2010,07,10,02,05,18.10
2010,07,10,02,06,18.10
2010,07,10,02,07,18.10
2010,07,10,02,08,18.10
2010,07,10,02,09,18.00
2010,07,10,02,10,18.00
2010,07,10,02,11,17.90
2010,07,10,02,12,17.90
2010,07,10,02,13,17.90
2010,07,10,02,14,17.90
2010,07,10,02,15,17.90
2010,07,10,02,16,17.80
2010,07,10,02,17,17.80
2010,07,10,02,18,17.80
2010,07,10,02,19,17.80
2010,07,10,02,20,17.80
2010,07,10,02,21,17.80
2010,07,10,02,22,17.70
2010,07,10,02,23,17.70
2010,07,10,02,24,17.70
2010,07,10,02,25,17.70
2010,07,10,02,26,17.70
2010,07,10,02,27,17.70
2010,07,10,02,28,17.70
2010,07,10,02,29,17.70
2010,07,10,02,30,17.70
2010,07,10,02,31,17.70
2010,07,10,02,32,17.60
2010,07,10,02,33,17.60
2010,07,10,02,34,17.60
2010,07,10,02,35,17.60
2010,07,10,02,36,17.60
2010,07,10,02,37,17.60
2010,07,10,02,38,17.60
2010,07,10,02,39,17.60
2010,07,10,02,40,17.60
2010,07,10,02,41,17.50
2010,07,10,02,42,17.50
2010,07,10,02,43,17.50
2010,07,10,02,44,17.50
2010,07,10,02,45,17.40
2010,07,10,02,46,17.40
2010,07,10,02,47,17.40
2010,07,10,02,48,17.30
2010,07,10,02,49,17.30
2010,07,10,02,50,17.30
2010,07,10,02,51,17.30
2010,07,10,02,52,17.30
2010,07,10,02,53,17.30
2010,07,10,02,54,17.30
2010,07,10,02,55,17.20
2010,07,10,02,56,17.20
2010,07,10,02,57,17.20
2010,07,10,02,58,17.20
2010,07,10,02,59,17.20
2010,07,10,03,00,17.20
2010,07,10,03,01,17.20
2010,07,10,03,02,17.10
2010,07,10,03,03,17.10
2010,07,10,03,04,17.10
2010,07,10,03,05,17.10
2010,07,10,03,06,17.10
2010,07,10,03,07,17.10
2010,07,10,03,08,17.00
2010,07,10,03,09,17.00
2010,07,10,03,10,17.00
2010,07,10,03,11,17.00
2010,07,10,03,12,16.90
2010,07,10,03,13,16.90
2010,07,10,03,14,16.90
2010,07,10,03,15,16.90
2010,07,10,03,16,16.90
2010,07,10,03,17,16.90
2010,07,10,03,18,16.80
2010,07,10,03,19,16.80
2010,07,10,03,20,16.80
2010,07,10,03,21,16.80
2010,07,10,03,22,16.80
2010,07,10,03,23,16.80
2010,07,10,03,24,16.80
2010,07,10,03,25,16.80
2010,07,10,03,26,16.80
2010,07,10,03,27,16.80
2010,07,10,03,28,16.80
2010,07,10,03,29,16.80
2010,07,10,03,30,16.80
2010,07,10,03,31,16.80
2010,07,10,03,32,16.80
2010,07,10,03,33,16.80
2010,07,10,03,34,16.80
2010,07,10,03,35,16.80
2010,07,10,03,36,16.80
2010,07,10,03,37,16.80
2010,07,10,03,38,16.80
2010,07,10,03,39,16.80
2010,07,10,03,40,16.80
2010,07,10,03,41,16.80
2010,07,10,03,42,16.70
2010,07,10,03,43,16.80
2010,07,10,03,44,16.70
2010,07,10,03,45,16.70
2010,07,10,03,46,16.80
2010,07,10,09,25,20.30
2010,07,10,09,26,20.30
2010,07,10,09,27,20.40
2010,07,10,09,28,20.40
2010,07,10,09,29,20.40
2010,07,10,09,30,20.40
2010,07,10,09,31,20.40
2010,07,10,09,32,20.50
2010,07,10,09,33,20.60
2010,07,10,09,34,20.60
2010,07,10,09,35,20.70
2010,07,10,09,36,20.70
2010,07,10,09,37,20.70
2010,07,10,09,38,20.80
2010,07,10,09,39,20.80
2010,07,10,09,40,20.80
2010,07,10,09,41,20.80
2010,07,10,09,42,20.80
2010,07,10,09,43,20.80
2010,07,10,09,44,20.70
2010,07,10,09,45,20.70
2010,07,10,09,46,20.70
2010,07,10,09,47,20.80
2010,07,10,09,48,20.80
2010,07,10,09,49,20.80
2010,07,10,09,50,20.80
2010,07,10,09,51,20.80
2010,07,10,09,52,20.80
2010,07,10,09,53,20.90
2010,07,10,09,54,20.80
2010,07,10,09,55,20.80
2010,07,10,09,56,20.80
2010,07,10,09,57,20.80
2010,07,10,09,58,20.80
2010,07,10,09,59,20.80
2010,07,10,10,00,20.80
2010,07,10,10,01,20.80
2010,07,10,10,02,20.80
2010,07,10,10,03,20.80
2010,07,10,10,04,20.90
2010,07,10,10,05,20.90
2010,07,10,10,06,20.90
2010,07,10,10,07,21.00
2010,07,10,10,08,21.10
2010,07,10,10,09,21.10
2010,07,10,10,10,21.10
2010,07,10,10,11,21.10
2010,07,10,10,12,21.20
2010,07,10,10,13,21.10
2010,07,10,10,14,21.20
2010,07,10,10,15,21.20
2010,07,10,10,16,21.10
2010,07,10,10,17,21.20
2010,07,10,10,18,21.20
2010,07,10,10,19,21.20
2010,07,10,10,20,21.20
2010,07,10,10,21,21.20
2010,07,10,10,22,21.20
2010,07,10,10,23,21.30
2010,07,10,10,24,21.30
2010,07,10,10,25,21.40
2010,07,10,10,26,21.50
2010,07,10,10,27,21.50
2010,07,10,10,28,21.60
2010,07,10,10,29,21.60
2010,07,10,10,30,21.70
2010,07,10,10,31,21.70
2010,07,10,10,32,21.70
2010,07,10,10,33,21.80
2010,07,10,10,34,21.80
2010,07,10,10,35,21.80
2010,07,10,10,36,21.90
2010,07,10,10,37,21.90
2010,07,10,10,38,22.00
2010,07,10,10,39,22.10
2010,07,10,10,40,22.20
2010,07,10,10,41,22.20
2010,07,10,10,42,22.20
2010,07,10,10,43,22.30
2010,07,10,10,44,22.30
2010,07,10,10,45,22.30
2010,07,10,10,46,22.40
2010,07,10,10,47,22.40
2010,07,10,10,48,22.40
2010,07,10,10,49,22.40
2010,07,10,10,50,22.40
2010,07,10,10,51,22.50
2010,07,10,10,52,22.60
2010,07,10,10,53,22.60
2010,07,10,10,54,22.60
2010,07,10,10,55,22.60
2010,07,10,10,56,22.60
2010,07,10,10,57,22.70
2010,07,10,10,58,22.70
2010,07,10,10,59,22.70
2010,07,10,11,00,22.80
2010,07,10,11,01,22.80
2010,07,10,11,02,22.90
2010,07,10,11,03,23.00
2010,07,10,11,04,23.00
2010,07,10,11,05,23.10
2010,07,10,11,06,23.10
2010,07,10,11,07,23.10
2010,07,10,11,08,23.20
2010,07,10,11,09,23.20
2010,07,10,11,10,23.20
2010,07,10,11,11,23.30
2010,07,10,11,12,23.30
2010,07,10,11,13,23.30
2010,07,10,11,14,23.40
2010,07,10,11,15,23.40
2010,07,10,11,16,23.50
2010,07,10,11,17,23.50
2010,07,10,11,18,23.50
2010,07,10,11,19,23.40
2010,07,10,11,20,23.40
2010,07,10,11,21,23.50
2010,07,10,11,22,23.60
2010,07,10,11,23,23.60
2010,07,10,11,24,23.70
2010,07,10,11,25,23.70
2010,07,10,11,26,23.80
2010,07,10,11,27,23.90
2010,07,10,11,28,23.90
2010,07,10,11,29,24.00
2010,07,10,11,30,24.00
2010,07,10,11,31,24.00
2010,07,10,11,32,24.00
2010,07,10,11,33,24.10
2010,07,10,11,34,24.00
2010,07,10,11,35,24.10
2010,07,10,11,36,24.10
2010,07,10,11,37,24.20
2010,07,10,11,38,24.20
2010,07,10,11,39,24.20
2010,07,10,11,40,24.20
2010,07,10,11,41,24.20
2010,07,10,11,42,24.20
2010,07,10,11,43,24.20
2010,07,10,11,44,24.20
2010,07,10,11,45,24.10
2010,07,10,11,46,24.10
2010,07,10,11,47,24.10
2010,07,10,11,48,24.10
2010,07,10,11,49,24.10
2010,07,10,11,50,24.10
2010,07,10,11,51,24.10
2010,07,10,11,52,24.20
2010,07,10,11,53,24.30
2010,07,10,11,54,24.40
2010,07,10,11,55,24.40
2010,07,10,11,56,24.60
2010,07,10,11,57,24.60
2010,07,10,11,58,24.70
2010,07,10,11,59,24.70
2010,07,10,12,00,24.70
2010,07,10,12,01,24.70
2010,07,10,12,02,24.70
2010,07,10,12,03,24.70
2010,07,10,12,04,24.80
2010,07,10,12,05,24.80
2010,07,10,12,06,24.80
2010,07,10,12,07,24.80
2010,07,10,12,08,24.80
2010,07,10,12,09,24.80
2010,07,10,12,10,24.80
2010,07,10,12,11,24.80
2010,07,10,12,12,24.80
2010,07,10,12,13,24.90
2010,07,10,12,14,24.90
2010,07,10,12,15,25.10
2010,07,10,12,16,25.10
2010,07,10,12,17,25.20
2010,07,10,12,18,25.20
2010,07,10,12,19,25.20
2010,07,10,12,20,25.20
2010,07,10,12,21,25.20
2010,07,10,12,22,25.20
2010,07,10,12,23,25.20
2010,07,10,12,24,25.30
2010,07,10,12,25,25.30
2010,07,10,12,26,25.30
2010,07,10,12,27,25.30
2010,07,10,12,28,25.40
2010,07,10,12,29,25.50
2010,07,10,12,30,25.60
2010,07,10,12,31,25.60
2010,07,10,12,32,25.70
2010,07,10,12,33,25.80
2010,07,10,12,34,25.90
2010,07,10,12,35,25.90
2010,07,10,12,36,26.10
2010,07,10,12,37,26.10
2010,07,10,12,38,26.20
2010,07,10,12,39,26.20
2010,07,10,12,40,26.20
2010,07,10,12,41,26.20
2010,07,10,12,42,26.10
2010,07,10,12,43,26.10
2010,07,10,12,44,26.10
2010,07,10,12,45,26.10
2010,07,10,12,46,26.10
2010,07,10,12,47,26.10
2010,07,10,12,48,26.10
2010,07,10,12,49,26.20
2010,07,10,12,50,26.20
2010,07,10,12,51,26.20
2010,07,10,12,52,26.30
2010,07,10,12,53,26.30
2010,07,10,12,54,26.30
2010,07,10,12,55,26.40
2010,07,10,12,56,26.40
2010,07,10,12,57,26.30
2010,07,10,12,58,26.30
2010,07,10,12,59,26.40
2010,07,10,13,00,26.40
2010,07,10,13,01,26.40
2010,07,10,13,02,26.40
2010,07,10,13,03,26.40
2010,07,10,13,04,26.30
2010,07,10,13,05,26.30
2010,07,10,13,06,26.30
2010,07,10,13,07,26.30
2010,07,10,13,08,26.30
2010,07,10,13,09,26.40
2010,07,10,13,10,26.50
2010,07,10,13,11,26.60
2010,07,10,13,12,26.60
2010,07,10,13,13,26.60
2010,07,10,13,14,26.70
2010,07,10,13,15,26.70
2010,07,10,13,16,26.70
2010,07,10,13,17,26.70
2010,07,10,13,18,26.80
2010,07,10,13,19,26.80
2010,07,10,13,20,26.80
2010,07,10,13,21,26.80
2010,07,10,13,22,26.70
2010,07,10,13,23,26.70
2010,07,10,13,24,26.70
2010,07,10,13,25,26.70
2010,07,10,13,26,26.70
2010,07,10,13,27,26.70
2010,07,10,13,28,26.70
2010,07,10,13,29,26.70
2010,07,10,13,30,26.80
2010,07,10,13,31,26.80
2010,07,10,13,32,26.90
2010,07,10,13,33,26.90
2010,07,10,13,34,26.90
2010,07,10,13,35,26.90
2010,07,10,13,36,26.90
2010,07,10,13,37,26.90
2010,07,10,13,38,26.90
2010,07,10,13,39,26.90
2010,07,10,13,40,26.90
2010,07,10,13,41,27.10
2010,07,10,13,42,27.10
2010,07,10,13,43,27.10
2010,07,10,13,44,27.20
2010,07,10,13,45,27.20
2010,07,10,13,46,27.30
2010,07,10,13,47,27.20
2010,07,10,13,48,27.20
2010,07,10,13,49,27.10
2010,07,10,13,50,27.00
2010,07,10,13,51,26.90
2010,07,10,13,52,26.90
2010,07,10,13,53,26.80
2010,07,10,13,54,26.80
2010,07,10,13,55,26.80
2010,07,10,13,56,26.80
2010,07,10,13,57,26.80
2010,07,10,13,58,26.80
2010,07,10,13,59,26.90
2010,07,10,14,00,26.90
2010,07,10,14,01,26.90
2010,07,10,14,02,26.90
2010,07,10,14,03,27.00
2010,07,10,14,04,27.00
2010,07,10,14,05,27.10
2010,07,10,14,06,27.20
2010,07,10,14,07,27.20
2010,07,10,14,08,27.20
2010,07,10,14,09,27.30
2010,07,10,14,10,27.40
2010,07,10,14,11,27.40
2010,07,10,14,12,27.40
2010,07,10,14,13,27.40
2010,07,10,14,14,27.30
2010,07,10,14,15,27.20
2010,07,10,14,16,27.20
2010,07,10,14,17,27.20
2010,07,10,14,18,27.20
2010,07,10,14,19,27.20
2010,07,10,14,20,27.20
2010,07,10,14,21,27.20
2010,07,10,14,22,27.30
2010,07,10,14,23,27.40
2010,07,10,14,24,27.40
2010,07,10,14,25,27.50
2010,07,10,14,26,27.60
2010,07,10,14,27,27.60
2010,07,10,14,28,27.60
2010,07,10,14,29,27.60
2010,07,10,14,30,27.60
2010,07,10,14,31,27.70
2010,07,10,14,32,27.80
2010,07,10,14,33,27.80
2010,07,10,14,34,27.80
2010,07,10,14,35,27.70
2010,07,10,14,36,27.70
2010,07,10,14,37,27.70
2010,07,10,14,38,27.80
2010,07,10,14,39,27.80
2010,07,10,14,40,27.80
2010,07,10,14,41,27.80
2010,07,10,14,42,27.80
2010,07,10,14,43,27.80
2010,07,10,14,44,27.90
2010,07,10,14,45,27.90
2010,07,10,14,46,28.00
2010,07,10,14,47,28.10
2010,07,10,14,48,28.20
2010,07,10,14,49,28.20
2010,07,10,14,50,28.10
2010,07,10,14,51,28.10
2010,07,10,14,52,28.00
2010,07,10,14,53,27.90
2010,07,10,14,54,27.90
2010,07,10,14,55,27.90
2010,07,10,14,56,27.90
2010,07,10,14,57,28.00
2010,07,10,14,58,28.00
2010,07,10,14,59,28.00
2010,07,10,15,00,27.90
2010,07,10,15,01,28.00
2010,07,10,15,02,28.00
2010,07,10,15,03,28.00
2010,07,10,15,04,28.10
2010,07,10,15,05,28.10
2010,07,10,15,06,28.10
2010,07,10,15,07,28.10
2010,07,10,15,08,28.20
2010,07,10,15,09,28.20
2010,07,10,15,10,28.20
2010,07,10,15,11,28.20
2010,07,10,15,12,28.10
2010,07,10,15,13,28.20
2010,07,10,15,14,28.20
2010,07,10,15,15,28.20
2010,07,10,15,16,28.20
2010,07,10,15,17,28.10
2010,07,10,15,18,28.10
2010,07,10,15,19,28.10
2010,07,10,15,20,28.10
2010,07,10,15,21,28.10
2010,07,10,15,22,28.10
2010,07,10,15,23,28.20
2010,07,10,15,24,28.20
2010,07,10,15,25,28.20
2010,07,10,15,26,28.30
2010,07,10,15,27,28.30
2010,07,10,15,28,28.30
2010,07,10,15,29,28.40
2010,07,10,15,30,28.40
2010,07,10,15,31,28.40
2010,07,10,15,32,28.40
2010,07,10,15,33,28.40
2010,07,10,15,34,28.40
2010,07,10,15,35,28.40
2010,07,10,15,36,28.40
2010,07,10,15,37,28.50
2010,07,10,15,38,28.60
2010,07,10,15,39,28.60
2010,07,10,15,40,28.70
2010,07,10,15,41,28.70
2010,07,10,15,42,28.70
2010,07,10,15,43,28.70
2010,07,10,15,44,28.70
2010,07,10,15,45,28.60
2010,07,10,15,46,28.60
2010,07,10,15,47,28.60
2010,07,10,15,48,28.60
2010,07,10,15,49,28.50
2010,07,10,15,50,28.50
2010,07,10,15,51,28.50
2010,07,10,15,52,28.60
2010,07,10,15,53,28.60
2010,07,10,15,54,28.50
2010,07,10,15,55,28.50
2010,07,10,15,56,28.50
2010,07,10,15,57,28.50
2010,07,10,15,58,28.50
2010,07,10,15,59,28.60
2010,07,10,16,00,28.60
2010,07,10,16,01,28.60
2010,07,10,16,02,28.70
2010,07,10,16,03,28.70
2010,07,10,16,04,28.80
2010,07,10,16,05,28.80
2010,07,10,16,06,28.90
2010,07,10,16,07,28.90
2010,07,10,16,08,28.80
2010,07,10,16,09,28.80
2010,07,10,16,10,28.80
2010,07,10,16,11,28.80
2010,07,10,16,12,28.80
2010,07,10,16,13,28.80
2010,07,10,16,14,28.80
2010,07,10,16,15,28.80
2010,07,10,16,16,28.80
2010,07,10,16,17,28.80
2010,07,10,16,18,28.70
2010,07,10,16,19,28.70
2010,07,10,16,20,28.70
2010,07,10,16,21,28.60
2010,07,10,16,22,28.60
2010,07,10,16,23,28.60
2010,07,10,16,24,28.50
2010,07,10,16,25,28.50
2010,07,10,16,26,28.40
2010,07,10,16,27,28.40
2010,07,10,16,28,28.30
2010,07,10,16,29,28.30
2010,07,10,16,30,28.30
2010,07,10,16,31,28.30
2010,07,10,16,32,28.30
2010,07,10,16,33,28.40
2010,07,10,16,34,28.30
2010,07,10,16,35,28.30
2010,07,10,16,36,28.30
2010,07,10,16,37,28.30
2010,07,10,16,38,28.30
2010,07,10,16,39,28.30
2010,07,10,16,40,28.30
2010,07,10,16,41,28.40
2010,07,10,16,42,28.40
2010,07,10,16,43,28.40
2010,07,10,16,44,28.40
2010,07,10,16,45,28.30
2010,07,10,16,46,28.30
2010,07,10,16,47,28.30
2010,07,10,16,48,28.20
2010,07,10,16,49,28.20
2010,07,10,16,50,28.10
2010,07,10,16,51,28.00
2010,07,10,16,52,28.00
2010,07,10,16,53,28.00
2010,07,10,16,54,27.90
2010,07,10,16,55,27.90
2010,07,10,16,56,27.90
2010,07,10,16,57,27.90
2010,07,10,16,58,27.90
2010,07,10,16,59,27.90
2010,07,10,17,00,27.90
2010,07,10,17,01,27.90
2010,07,10,17,02,27.90
2010,07,10,17,03,27.90
2010,07,10,17,04,27.90
2010,07,10,17,05,27.90
2010,07,10,17,06,27.90
2010,07,10,17,07,27.90
2010,07,10,17,08,27.90
2010,07,10,17,09,27.80
2010,07,10,17,10,27.80
2010,07,10,17,11,27.90
2010,07,10,17,12,27.80
2010,07,10,17,13,27.80
2010,07,10,17,14,27.80
2010,07,10,17,15,27.80
2010,07,10,17,16,27.80
2010,07,10,17,17,27.80
2010,07,10,17,18,27.80
2010,07,10,17,19,27.80
2010,07,10,17,20,27.80
2010,07,10,17,21,27.80
2010,07,10,17,22,27.70
2010,07,10,17,23,27.70
2010,07,10,17,24,27.70
2010,07,10,17,25,27.80
2010,07,10,17,26,27.80
2010,07,10,17,27,27.80
2010,07,10,17,28,27.90
2010,07,10,17,29,27.80
2010,07,10,17,30,27.80
2010,07,10,17,31,27.80
2010,07,10,17,32,27.70
2010,07,10,17,33,27.70
2010,07,10,17,34,27.60
2010,07,10,17,35,27.50
2010,07,10,17,36,27.40
2010,07,10,17,37,27.40
2010,07,10,17,38,27.30
2010,07,10,17,39,27.30
2010,07,10,17,40,27.30
2010,07,10,17,41,27.20
2010,07,10,17,42,27.20
2010,07,10,17,43,27.20
2010,07,10,17,44,27.10
2010,07,10,17,45,27.10
2010,07,10,17,46,27.10
2010,07,10,17,47,27.10
2010,07,10,17,48,27.10
2010,07,10,17,49,27.10
2010,07,10,17,50,27.10
2010,07,10,17,51,27.10
2010,07,10,17,52,27.00
2010,07,10,17,53,26.90
2010,07,10,17,54,26.90
2010,07,10,17,55,27.00
2010,07,10,17,56,27.00
2010,07,10,17,57,26.90
2010,07,10,17,58,26.80
2010,07,10,17,59,26.80
2010,07,10,18,00,26.70
2010,07,10,18,01,26.70
2010,07,10,18,02,26.70
2010,07,10,18,03,26.70
2010,07,10,18,04,26.70
2010,07,10,18,05,26.70
2010,07,10,18,06,26.60
2010,07,10,18,07,26.60
2010,07,10,18,08,26.60
2010,07,10,18,09,26.50
2010,07,10,18,10,26.50
2010,07,10,18,11,26.50
2010,07,10,18,12,26.50
2010,07,10,18,13,26.60
2010,07,10,18,14,26.60
2010,07,10,18,15,26.60
2010,07,10,18,16,26.60
2010,07,10,18,17,26.60
2010,07,10,18,18,26.60
2010,07,10,18,19,26.60
2010,07,10,18,20,26.60
2010,07,10,18,21,26.40
2010,07,10,18,22,26.40
2010,07,10,18,23,26.30
2010,07,10,18,24,26.30
2010,07,10,18,25,26.30
2010,07,10,18,26,26.30
2010,07,10,18,27,26.20
2010,07,10,18,28,26.20
2010,07,10,18,29,26.10
2010,07,10,18,30,26.10
2010,07,10,18,31,26.10
2010,07,10,18,32,26.20
2010,07,10,18,33,26.20
2010,07,10,18,34,26.10
2010,07,10,18,35,26.10
2010,07,10,18,36,26.10
2010,07,10,18,37,26.10
2010,07,10,18,38,26.10
2010,07,10,18,39,26.00
2010,07,10,18,40,25.90
2010,07,10,18,41,25.90
2010,07,10,18,42,25.90
2010,07,10,18,43,25.90
2010,07,10,18,44,25.90
2010,07,10,18,45,25.90
2010,07,10,18,46,25.90
2010,07,10,18,47,25.90
2010,07,10,18,48,25.90
2010,07,10,18,49,25.80
2010,07,10,18,50,25.80
2010,07,10,18,51,25.70
2010,07,10,18,52,25.70
2010,07,10,18,53,25.60
2010,07,10,18,54,25.60
2010,07,10,18,55,25.60
2010,07,10,18,56,25.60
2010,07,10,18,57,25.60
2010,07,10,18,58,25.60
2010,07,10,18,59,25.60
2010,07,10,19,00,25.60
2010,07,10,19,01,25.60
2010,07,10,19,02,25.60
2010,07,10,19,03,25.60
2010,07,10,19,04,25.60
2010,07,10,19,05,25.60
2010,07,10,19,06,25.60
2010,07,10,19,07,25.60
2010,07,10,19,08,25.60
2010,07,10,19,09,25.60
2010,07,10,19,10,25.60
2010,07,10,19,11,25.60
2010,07,10,19,12,25.70
2010,07,10,19,13,25.70
2010,07,10,19,14,25.70
2010,07,10,19,15,25.70
2010,07,10,19,16,25.70
2010,07,10,19,17,25.70
2010,07,10,19,18,25.70
2010,07,10,19,19,25.70
2010,07,10,19,20,25.70
2010,07,10,19,21,25.70
2010,07,10,19,22,25.60
2010,07,10,19,23,25.70
2010,07,10,19,24,25.70
2010,07,10,19,25,25.70
2010,07,10,19,26,25.70
2010,07,10,19,27,25.70
2010,07,10,19,28,25.70
2010,07,10,19,29,25.80
2010,07,10,19,30,25.80
2010,07,10,19,31,25.80
2010,07,10,19,32,25.80
2010,07,10,19,33,25.80
2010,07,10,19,34,25.80
2010,07,10,19,35,25.80
2010,07,10,19,36,25.80
2010,07,10,19,37,25.80
2010,07,10,19,38,25.70
2010,07,10,19,39,25.70
2010,07,10,19,40,25.80
2010,07,10,19,41,25.80
2010,07,10,19,42,25.80
2010,07,10,19,43,25.80
2010,07,10,19,44,25.80
2010,07,10,19,45,25.80
2010,07,10,19,46,25.90
2010,07,10,19,47,25.90
2010,07,10,19,48,25.90
2010,07,10,19,49,25.90
2010,07,10,19,50,25.80
2010,07,10,19,51,25.80
2010,07,10,19,52,25.70
2010,07,10,19,53,25.70
2010,07,10,19,54,25.70
2010,07,10,19,55,25.60
2010,07,10,19,56,25.60
2010,07,10,19,57,25.60
2010,07,10,19,58,25.50
2010,07,10,19,59,25.50
2010,07,10,20,00,25.40
2010,07,10,20,01,25.40
2010,07,10,20,02,25.40
2010,07,10,20,03,25.40
2010,07,10,20,04,25.30
2010,07,10,20,05,25.20
2010,07,10,20,06,25.20
2010,07,10,20,07,25.20
2010,07,10,20,08,25.10
2010,07,10,20,09,25.00
2010,07,10,20,10,25.00
2010,07,10,20,11,24.90
2010,07,10,20,12,24.90
2010,07,10,20,13,24.90
2010,07,10,20,14,24.80
2010,07,10,20,15,24.80
2010,07,10,20,16,24.80
2010,07,10,20,17,24.80
2010,07,10,20,18,24.80
2010,07,10,20,19,24.90
2010,07,10,20,20,24.90
2010,07,10,20,21,24.80
2010,07,10,20,22,24.80
2010,07,10,20,23,24.80
2010,07,10,20,24,24.70
2010,07,10,20,25,24.60
2010,07,10,20,26,24.60
2010,07,10,20,27,24.50
2010,07,10,20,28,24.40
2010,07,10,20,29,24.30
2010,07,10,20,30,24.30
2010,07,10,20,31,24.20
2010,07,10,20,32,24.20
2010,07,10,20,33,24.20
2010,07,10,20,34,24.10
2010,07,10,20,35,24.10
2010,07,10,20,36,24.10
2010,07,10,20,37,24.00
2010,07,10,20,38,24.00
2010,07,10,20,39,24.00
2010,07,10,20,40,24.00
2010,07,10,20,41,24.00
2010,07,10,20,42,23.90
2010,07,10,20,43,23.90
2010,07,10,20,44,23.80
2010,07,10,20,45,23.80
2010,07,10,20,46,23.70
2010,07,10,20,47,23.70
2010,07,10,20,48,23.70
2010,07,10,20,49,23.60
2010,07,10,20,50,23.60
2010,07,10,20,51,23.50
2010,07,10,20,52,23.40
2010,07,10,20,53,23.40
2010,07,10,20,54,23.30
2010,07,10,20,55,23.30
2010,07,10,20,56,23.20
2010,07,10,20,57,23.20
2010,07,10,20,58,23.10
2010,07,10,20,59,23.10
2010,07,10,21,00,23.10
2010,07,10,21,01,23.10
2010,07,10,21,02,23.10
2010,07,10,21,03,23.00
2010,07,10,21,04,22.90
2010,07,10,21,05,22.80
2010,07,10,21,06,22.70
2010,07,10,21,07,22.60
2010,07,10,21,08,22.50
2010,07,10,21,09,22.40
2010,07,10,21,10,22.30
2010,07,10,21,11,22.30
2010,07,10,21,12,22.20
2010,07,10,21,13,22.10
2010,07,10,21,14,22.10
2010,07,10,21,15,22.00
2010,07,10,21,16,21.90
2010,07,10,21,17,21.90
2010,07,10,21,18,21.80
2010,07,10,21,19,21.80
2010,07,10,21,20,21.70
2010,07,10,21,21,21.70
2010,07,10,21,22,21.60
2010,07,10,21,23,21.60
2010,07,10,21,24,21.50
2010,07,10,21,25,21.50
2010,07,10,21,26,21.40
2010,07,10,21,27,21.40
2010,07,10,21,28,21.30
2010,07,10,21,29,21.30
2010,07,10,21,30,21.30
2010,07,10,21,31,21.20
2010,07,10,21,32,21.20
2010,07,10,21,33,21.20
2010,07,10,21,34,21.10
2010,07,10,21,35,21.10
2010,07,10,21,36,21.00
2010,07,10,21,37,20.90
2010,07,10,21,38,20.90
2010,07,10,21,39,20.90
2010,07,10,21,40,20.90
2010,07,10,21,41,20.80
2010,07,10,21,42,20.80
2010,07,10,21,43,20.80
2010,07,10,21,44,20.80
2010,07,10,21,45,20.80
2010,07,10,21,46,20.80
2010,07,10,21,47,20.70
2010,07,10,21,48,20.70
2010,07,10,21,49,20.70
2010,07,10,21,50,20.70
2010,07,10,21,51,20.60
2010,07,10,21,52,20.60
2010,07,10,21,53,20.60
2010,07,10,21,54,20.50
2010,07,10,21,55,20.40
2010,07,10,21,56,20.40
2010,07,10,21,57,20.30
2010,07,10,21,58,20.30
2010,07,10,21,59,20.30
2010,07,10,22,00,20.20
2010,07,10,22,01,20.20
2010,07,10,22,02,20.20
2010,07,10,22,03,20.20
2010,07,10,22,04,20.10
2010,07,10,22,05,20.10
2010,07,10,22,06,20.10
2010,07,10,22,07,20.10
2010,07,10,22,08,20.00
2010,07,10,22,09,20.00
2010,07,10,22,10,19.90
2010,07,10,22,11,19.90
2010,07,10,22,12,19.90
2010,07,10,22,13,19.80
2010,07,10,22,14,19.80
2010,07,10,22,15,19.80
2010,07,10,22,16,19.80
2010,07,10,22,17,19.70
2010,07,10,22,18,19.70
2010,07,10,22,19,19.70
2010,07,10,22,20,19.70
2010,07,10,22,21,19.70
2010,07,10,22,22,19.60
2010,07,10,22,23,19.60
2010,07,10,22,24,19.60
2010,07,10,22,25,19.60
2010,07,10,22,26,19.60
2010,07,10,22,27,19.60
2010,07,10,22,28,19.60
2010,07,10,22,29,19.60
2010,07,10,22,30,19.60
2010,07,10,22,31,19.50
2010,07,10,22,32,19.50
2010,07,10,22,33,19.50
2010,07,10,22,34,19.50
2010,07,10,22,35,19.50
2010,07,10,22,36,19.50
2010,07,10,22,37,19.40
2010,07,10,22,38,19.40
2010,07,10,22,39,19.40
2010,07,10,22,40,19.40
2010,07,10,22,41,19.40
2010,07,10,22,42,19.40
2010,07,10,22,43,19.40
2010,07,10,22,44,19.40
2010,07,10,22,45,19.40
2010,07,10,22,46,19.40
2010,07,10,22,47,19.40
2010,07,10,22,48,19.30
2010,07,10,22,49,19.30
2010,07,10,22,50,19.30
2010,07,10,22,51,19.30
2010,07,10,22,52,19.30
2010,07,10,22,53,19.30
2010,07,10,22,54,19.30
2010,07,10,22,55,19.20
2010,07,10,22,56,19.20
2010,07,10,22,57,19.20